AA5AW Weather Reports


time (UTC)temp
C
wind
direction
speed
KPH
gust
KPH
rain 1hr
cm
rain 24hr
cm
rain mn
cm
humidity
%
barometer
mb
20260502163024 20 73 0.0 6.4 0.00 1.07 0.03 60 1022.7
20260502161549 20 21 3.2 12.9 0.00 1.07 0.03 60 1022.7
20260502151541 17 311 4.8 16.1 0.00 1.24 0.03 74 1022.6
20260502150109 17 343 6.4 16.1 0.00 1.24 0.03 75 1022.5
20260502123015 10 82 0.0 3.2 0.03 2.21 0.03 98 1020.9
20260502121536 10 298 0.0 3.2 0.00 2.18 0.00 98 1020.7
20260502120115 9 228 0.0 1.6 0.00 2.18 0.00 97 1020.5
20260502114609 9 219 0.0 1.6 0.00 2.34 0.00 97 1019.9
20260502113009 8 301 0.0 3.2 0.00 2.34 0.00 97 1019.8
20260502111529 9 159 0.0 1.6 0.00 2.34 0.00 97 1019.8
20260502110037 9 17 0.0 1.6 0.00 2.34 0.00 97 1019.7
20260502104513 9 17 0.0 0.0 0.00 2.49 0.00 97 1019.5
20260502103054 9 17 0.0 0.0 0.00 2.49 0.00 97 1019.3
20260502101546 9 17 0.0 0.0 0.00 2.49 0.00 97 1019.2
20260502091532 10 17 0.0 3.2 0.00 2.57 0.00 97 1018.8
20260502071501 11 7 1.6 4.8 0.00 2.57 0.00 97 1018.4
20260502070045 11 17 0.0 3.2 0.00 2.57 0.00 97 1018.3
20260502064558 11 17 0.0 3.2 0.00 2.62 0.00 96 1018.2
20260502063009 11 17 0.0 1.6 0.00 2.62 0.00 96 1018.3
20260502061521 11 17 0.0 1.6 0.00 2.62 0.00 96 1018.3
20260502060019 11 17 0.0 3.2 0.00 2.62 0.00 96 1018.0
20260502054548 11 17 0.0 1.6 0.00 2.67 0.00 96 1018.4
20260502053112 11 17 0.0 0.0 0.00 2.67 0.00 96 1018.3
20260502051515 11 17 0.0 3.2 0.00 2.67 0.00 96 1018.3
20260502050025 11 17 0.0 1.6 0.00 2.67 0.00 96 1018.4
20260502044536 11 17 0.0 3.2 0.00 2.69 2.67 96 1018.5
20260502043043 11 17 0.0 4.8 0.00 2.69 2.67 96 1018.6
20260502041546 11 351 0.0 4.8 0.00 2.69 2.67 96 1018.4
20260502040036 11 351 0.0 4.8 0.00 2.69 2.67 96 1018.6
20260502034513 11 357 1.6 6.4 0.00 2.72 2.67 95 1018.6
20260502033039 11 27 1.6 6.4 0.00 2.72 2.67 96 1018.3
20260502031534 11 40 1.6 8.0 0.00 2.72 2.67 96 1018.2
20260502030022 11 77 3.2 11.3 0.03 2.72 2.67 96 1017.6
20260502024514 11 61 1.6 6.4 0.05 2.72 2.67 95 1018.3
20260502023022 10 21 3.2 8.0 0.08 2.72 2.67 95 1018.3
20260502021534 11 34 4.8 16.1 0.13 2.72 2.67 95 1017.8
20260502020034 11 360 3.2 11.3 0.18 2.69 2.64 96 1017.3
20260502014545 11 29 4.8 14.5 0.20 2.72 2.64 96 1017.3
20260502013056 11 337 3.2 16.1 0.18 2.67 2.59 96 1017.6
20260502011510 11 341 1.6 8.0 0.15 2.62 2.54 95 1017.5
20260502010053 11 44 1.6 8.0 0.10 2.54 2.46 96 1016.9
20260502004558 11 66 1.6 8.0 0.08 2.51 2.44 95 1016.5
20260502003005 11 91 3.2 17.7 0.05 2.49 2.41 96 1016.3
20260502001506 11 38 3.2 8.0 0.05 2.46 2.39 96 1016.0
20260502000018 11 52 1.6 12.9 0.10 2.44 2.36 96 1015.3
20260501234534 11 31 8.0 22.5 0.18 2.44 2.36 96 1014.4
20260501233004 12 121 4.8 14.5 0.23 2.44 2.36 96 1014.4
20260501231512 12 341 1.6 16.1 0.20 2.41 2.34 96 1014.6
20260501230047 12 71 1.6 6.4 0.18 2.34 2.29 96 1014.9
20260501224511 12 17 1.6 6.4 0.15 2.26 2.18 95 1015.5
20260501223057 12 17 3.2 8.0 0.10 2.21 2.13 95 1015.3
20260501221519 12 12 1.6 8.0 0.13 2.21 2.13 95 1015.4
20260501220050 12 83 0.0 14.5 0.18 2.16 2.08 95 1015.1
20260501214540 12 29 4.8 14.5 0.18 2.11 2.03 95 1014.2
20260501213018 12 337 3.2 16.1 0.23 2.11 2.03 95 1014.2
20260501211557 12 61 3.2 12.9 0.23 2.08 2.01 95 1014.4
20260501210030 12 93 3.2 12.9 0.13 1.98 1.93 94 1014.9
20260501204612 12 39 4.8 14.5 0.08 1.93 1.85 93 1015.1
20260501204505 12 352 3.2 14.5 0.08 1.93 1.85 93 1015.2
20260501203058 12 17 4.8 14.5 0.03 1.88 1.80 92 1014.9
20260501201521 12 25 6.4 14.5 0.00 1.85 1.78 93 1014.7
20260501200049 12 86 3.2 17.7 0.00 1.85 1.78 93 1014.3
20260501194532 13 34 6.4 17.7 0.00 1.93 1.78 93 1013.4
20260501193011 13 74 8.0 22.5 0.00 1.93 1.78 94 1012.7
20260501191546 13 100 6.4 25.7 0.00 1.93 1.78 94 1012.4
20260501190013 13 61 6.4 19.3 0.00 1.93 1.78 94 1012.0
20260501184540 13 50 8.0 22.5 0.03 1.93 1.78 95 1011.8
20260501183023 13 42 8.0 20.9 0.03 1.93 1.78 96 1013.3
20260501181508 13 46 4.8 16.1 0.05 1.93 1.78 95 1014.5
20260501180056 13 41 4.8 19.3 0.05 1.93 1.78 96 1015.0
20260501174506 13 76 4.8 12.9 0.05 2.79 1.75 96 1015.0
20260501173041 13 7 4.8 11.3 0.10 2.79 1.75 96 1015.3